Weather History for McComb, MS

Change the Weather History Date:

Thursday, February 21, 2013

  Actual Average Record
Temperature  
Mean Temperature 58 °F -  
Max Temperature 69 °F 67 °F 81 °F (2005)
Min Temperature 46 °F 43 °F 21 °F (1978)
Degree Days  
Heating Degree Days 8    
Growing Degree Days 8 (Base 50)    
Moisture  
Dew Point 53 °F    
Average Humidity 78    
Maximum Humidity 100    
Minimum Humidity 42    
Precipitation  
Precipitation 0.96 in - - ()
Sea Level Pressure  
Sea Level Pressure 29.87 in    
Wind  
Wind Speed 10 mph (SSE)    
Max Wind Speed 20 mph    
Max Gust Speed 34 mph    
Visibility 7 miles    
Events Rain , Thunderstorm    
Averages and records for this station are not official NWS values.
T = Trace of Precipitation, MM = Missing Value Source: NWS Daily Summary

Daily Weather History Graph

Daily Weather History Graph

Search for Another Location

Airport:

Trip Planner

Search our weather history database for the weather conditions in past years. The results will help you decide how hot, cold, wet, or windy it might be!

Date:

Astronomy

Feb. 21, 2013 Rise Set
Actual Time 6:36 AM CST 5:54 PM CST
Civil Twilight 6:12 AM CST 6:18 PM CST
Nautical Twilight 5:44 AM CST 6:47 PM CST
Astronomical Twilight 5:16 AM CST 7:15 PM CST
Moon 2:18 PM CST (2/21) 3:31 AM CST (2/21)
Length of Visible Light 12h 06m
Length of Day
11h 17m
Waxing Gibbous, 84% of the Moon is Illuminated
Feb 21
Waxing Gibbous
Feb 25
Full
Mar 4
Last Quarter
Mar 11
New
Mar 19
First Quarter

Hourly Weather History & Observations

Time (CST) Temp. Dew Point Humidity Pressure Visibility Wind Dir Wind Speed Gust Speed Precip Events Conditions
12:53 AM 46.9 °F 25.0 °F 42% 30.05 in 10.0 mi East 4.6 mph - N/A   Overcast
1:53 AM 46.9 °F 25.0 °F 42% 30.01 in 10.0 mi Variable 5.8 mph - N/A   Overcast
2:53 AM 48.0 °F 26.1 °F 42% 29.99 in 10.0 mi ESE 5.8 mph - N/A   Overcast
3:53 AM 48.0 °F 26.1 °F 42% 29.97 in 10.0 mi East 8.1 mph - N/A   Overcast
4:53 AM 48.9 °F 27.0 °F 43% 29.98 in 10.0 mi East 6.9 mph - N/A   Overcast
5:53 AM 48.9 °F 28.0 °F 44% 29.98 in 10.0 mi East 6.9 mph - N/A   Overcast
6:53 AM 48.9 °F 30.0 °F 48% 29.99 in 10.0 mi Variable 4.6 mph - N/A   Overcast
7:53 AM 50.0 °F 33.1 °F 52% 29.99 in 10.0 mi ESE 9.2 mph - N/A   Overcast
8:11 AM 51.8 °F 33.8 °F 50% 29.99 in 10.0 mi ESE 10.4 mph - N/A   Overcast
8:41 AM 51.8 °F 35.6 °F 54% 29.99 in 10.0 mi SE 6.9 mph - N/A   Overcast
8:53 AM 52.0 °F 36.0 °F 54% 29.98 in 10.0 mi SE 9.2 mph 16.1 mph N/A   Overcast
9:53 AM 54.0 °F 41.0 °F 62% 29.95 in 10.0 mi SE 10.4 mph 19.6 mph 0.00 in   Overcast
10:53 AM 57.9 °F 46.0 °F 65% 29.93 in 10.0 mi SE 11.5 mph 21.9 mph 0.00 in   Overcast
11:53 AM 60.1 °F 51.1 °F 72% 29.90 in 10.0 mi SSE 15.0 mph 20.7 mph N/A   Overcast
12:53 PM 64.0 °F 55.0 °F 73% 29.83 in 10.0 mi SSE 18.4 mph 28.8 mph N/A   Overcast
1:46 PM 62.6 °F 57.2 °F 82% 29.81 in 10.0 mi SSE 13.8 mph 23.0 mph N/A   Overcast
1:53 PM 63.0 °F 57.9 °F 84% 29.80 in 10.0 mi SSE 12.7 mph - N/A   Overcast
2:09 PM 62.6 °F 59.0 °F 88% 29.80 in 5.0 mi SSE 15.0 mph 20.7 mph 0.01 in Rain , Thunderstorm Light Rain
2:53 PM 63.0 °F 61.0 °F 93% 29.76 in 5.0 mi SE 12.7 mph 21.9 mph 0.09 in Rain , Thunderstorm Light Rain
3:16 PM 62.6 °F 62.6 °F 100% 29.76 in 6.0 mi SSE 11.5 mph 20.7 mph 0.03 in Rain Light Rain
3:53 PM 64.0 °F 62.1 °F 93% 29.74 in 6.0 mi SSE 13.8 mph 20.7 mph 0.03 in Rain Light Rain
4:29 PM 64.4 °F 64.4 °F 100% 29.76 in 2.5 mi South 15.0 mph - 0.05 in Rain Rain
4:40 PM 64.4 °F 64.4 °F 100% 29.76 in 3.0 mi South 18.4 mph 23.0 mph 0.08 in Rain , Thunderstorm Light Rain
4:53 PM 66.0 °F 64.9 °F 96% 29.75 in 5.0 mi South 16.1 mph 25.3 mph 0.09 in Rain , Thunderstorm Light Rain
5:13 PM 66.2 °F 64.4 °F 94% 29.75 in 4.0 mi South 16.1 mph 24.2 mph 0.02 in Rain Light Rain
5:31 PM 66.2 °F 64.4 °F 94% 29.78 in 6.0 mi South 15.0 mph 34.5 mph 0.07 in Rain , Thunderstorm Light Rain
5:51 PM 66.2 °F 64.4 °F 94% 29.78 in 9.0 mi South 19.6 mph 27.6 mph 0.08 in   Overcast
5:53 PM 66.9 °F 64.9 °F 93% 29.77 in 9.0 mi South 17.3 mph 26.5 mph 0.08 in   Overcast
6:53 PM 68.0 °F 66.0 °F 93% 29.78 in 9.0 mi South 15.0 mph 26.5 mph N/A   Overcast
7:53 PM 68.0 °F 66.9 °F 96% 29.81 in 6.0 mi South 12.7 mph 19.6 mph 0.00 in Rain Light Rain
8:53 PM 68.0 °F 66.9 °F 96% 29.82 in 8.0 mi South 10.4 mph - 0.02 in   Overcast
9:00 PM 68.0 °F 66.2 °F 94% 29.82 in 8.0 mi South 10.4 mph - N/A Thunderstorm Overcast
9:12 PM 68.0 °F 66.2 °F 94% 29.83 in 8.0 mi South 11.5 mph 19.6 mph N/A Thunderstorm Overcast
9:53 PM 69.1 °F 66.9 °F 93% 29.83 in 10.0 mi SW 4.6 mph - 0.00 in Rain , Thunderstorm Light Rain
10:29 PM 69.8 °F 66.2 °F 88% 29.85 in 1.5 mi West 13.8 mph 26.5 mph 0.22 in Rain , Thunderstorm Thunderstorms and Rain
10:40 PM 69.8 °F 66.2 °F 88% 29.87 in 3.0 mi SW 8.1 mph 24.2 mph 0.27 in Rain , Thunderstorm Thunderstorms and Rain
10:45 PM 69.8 °F 66.2 °F 88% 29.87 in 2.0 mi Variable 6.9 mph - 0.35 in Rain , Thunderstorm Heavy Rain
10:53 PM 68.0 °F 66.0 °F 93% 29.87 in 1.8 mi WNW 15.0 mph 23.0 mph 0.47 in Rain , Thunderstorm Heavy Rain
11:00 PM 66.2 °F 64.4 °F 94% 29.88 in 1.8 mi NW 10.4 mph - 0.08 in Rain , Thunderstorm Heavy Rain
11:08 PM 64.4 °F 62.6 °F 94% 29.87 in 3.0 mi NW 8.1 mph - 0.12 in Rain , Thunderstorm Rain
11:18 PM 64.4 °F 62.6 °F 94% 29.88 in 10.0 mi NNW 6.9 mph - 0.13 in Rain Light Rain
11:53 PM 62.1 °F 60.1 °F 93% 29.88 in 10.0 mi Calm Calm - 0.18 in   Overcast